Regional Weather Roundup
Issued by NWS

Home | Current Version | Previous Version | Graphics & Text | Print | Product List | Glossary On
Versions: 1 2 3 4 5 6 7 8 9 10 11 12 13 14 15 16 17 18 19 20 21 22 23 24 25 26 27 28 29 30 31 32 33 34 35 36 37 38 39 40 41 42 43 44 45 46 47 48 49 50
000
ASUS43 KTOP 301259
RWRKS

WEATHER ROUNDUP FOR KANSAS
NATIONAL WEATHER SERVICE GOODLAND KS
800 AM CDT SUN APR 30 2017

NOTE:  "FAIR" INDICATES FEW OR NO CLOUDS BELOW 12,000 FEET WITH NO
SIGNIFICANT WEATHER AND/OR OBSTRUCTIONS TO VISIBILITY.

KSZ001>006-013>018-027>032-041>047-301400-
NORTHWEST KANSAS

CITY           SKY/WX    TMP DP  RH WIND       PRES   REMARKS
GOODLAND       FOG       32  29  88 N37G54    29.69R VSB 3/4 WCI  16
HAYS           LGT SNOW  34  33  96 N13       29.59R FOG     WCI  25
HILL CITY      HVY RAIN  34  33  96 N24G38    29.61R VSB 1   WCI  21
RUSSELL        LGT SNOW  37  35  92 NE23G31   29.54R FOG     WCI  26
$$

KSZ061>065-074>080-084>089-301400-
SOUTHWEST KANSAS

CITY           SKY/WX    TMP DP  RH WIND       PRES   REMARKS
DODGE CITY     SNOW      32  32 100 NW24G32   29.54F VSB 1/2 WCI  19
ELKHART          N/A    N/A N/A N/A MISG        N/A
GARDEN CITY    HVY SNOW  32  32 100 N32G40    29.61F VSB 1/4 WCI  17
GREAT BEND     LGT RAIN  37  36  96 N15       29.52S FOG     WCI  28
LIBERAL        LGT SNOW  33  32  96 NW35G40   29.62S VSB 1   WCI  18
$$

KSZ066>073-081>083-090>101-301400-
SOUTHEAST KANSAS

CITY           SKY/WX    TMP DP  RH WIND       PRES   REMARKS
CHANUTE        CLOUDY    53  51  93 S20G31    29.52R
COFFEYVILLE    CLOUDY    52  49  89 S16       29.54R
HUTCHINSON     CLOUDY    41  40  96 NE9       29.49R FOG
MEDICINE LODGE   N/A    N/A N/A N/A N9        29.46S
NEWTON         CLOUDY    41  40  96 E7        29.50R
PARSONS        CLOUDY    52  50  93 S14G20    29.54R
WICHITA INTL   CLOUDY    45  45 100 SE8       29.49R
WICHITA JABRA  CLOUDY    44  43  96 E6        29.50R
WINFIELD       CLOUDY    47  45  93 S15G21    29.52S
$$

KSZ007>012-019>026-033>040-048>060-102>105-301400-
NORTHEAST KANSAS

CITY           SKY/WX    TMP DP  RH WIND       PRES   REMARKS
CONCORDIA      CLOUDY    39  37  92 NE26G37   29.51R WCI  28
EMPORIA        CLOUDY    43  43 100 NE9G20    29.50R
LAWRENCE       CLOUDY    44  43  96 NE18      29.53F
MANHATTAN      CLOUDY    42  32  67 NE20G36   29.50F HAZE
OLATHE IND     LGT RAIN  45  44  97 NE17      29.53F FOG
OLATHE EXE     LGT RAIN  44  44 100 NE16G23   29.53F FOG
SALINA         LGT RAIN  42  39  89 NE13      29.53R FOG
TOPEKA BILLARD CLOUDY    44  43  96 NE23G32   29.49F FOG
TOPEKA FORBES  CLOUDY    44  42  93 NE15G28   29.47F FOG
$$



USA.gov is the U.S. government's official web portal to all federal, state and local government web resources and services.